Home > Weather > Tempe > Past weeks

Flag for USA Past Weather in Tempe, Arizona, USA — Yesterday and Last 2 Weeks

Now
107 °F

Partly cloudy.


Feels Like: 106 °F
Forecast: 92 / 110 °F
Wind: 12 mph from West

Location: Phoenix Sky Harbor International Airport

Current Time: Jul 27, 2016 at 9:59:24 PM

Latest Report: Jul 27, 2016 at 8:51 PM


Visibility: 10 mi

Pressure: 29.62 "Hg

Humidity: 18%

Dew Point: 55 °F

Location of TempeLocation

Past Weather in Tempe — Graph

°F

Tempe Temperature Yesterday

Maximum temperature yesterday: 110 °F (at 2:51 PM)
Minimum temperature yesterday: 91 °F (at 4:51 AM)
Average temperature yesterday: 101 °F

High & Low Weather Summary for the Past Weeks

 TemperatureHumidityPressure
High112 °F (Jul 27, 4:51 PM)59% (Jul 18, 5:51 AM)29.94 "Hg (Jul 18, 5:51 AM)
Low84 °F (Jul 18, 3:51 AM)9% (Jul 14, 4:51 PM)29.60 "Hg (Jul 27, 6:51 PM)
Average99 °F25%29.78 "Hg
* Reported Jul 12 8:51 PM — Jul 27 8:51 PM, Tempe, Weather by CustomWeather, © 2016

Note: Actual official high and low records may vary slightly from our data, if they occured in-between our weather recording intervals... More about our weather records

Advertising

Tempe Weather History for the Previous 24 Hours

Scroll right to see more
 ConditionsComfort  
Time TempWeatherWind HumidityBarometerVisibility
8:51 PM
Wed, Jul 27
107 °FPartly cloudy.12 mph18%29.62 "Hg10 mi
7:51 PM109 °FPartly cloudy.13 mph17%29.61 "Hg10 mi
6:51 PM110 °FScattered clouds.14 mph16%29.60 "Hg10 mi
5:51 PM112 °FScattered clouds.16 mph15%29.61 "Hg10 mi
4:51 PM112 °FScattered clouds.13 mph16%29.62 "Hg10 mi
3:51 PM111 °FScattered clouds.13 mph17%29.64 "Hg10 mi
2:51 PM109 °FScattered clouds.14 mph19%29.68 "Hg10 mi
1:51 PM109 °FScattered clouds.10 mph19%29.71 "Hg10 mi
12:51 PM105 °FScattered clouds.5 mph23%29.75 "Hg10 mi
11:51 AM103 °FScattered clouds.6 mph24%29.78 "Hg10 mi
10:51 AM103 °FScattered clouds.7 mph25%29.80 "Hg10 mi
9:51 AM97 °FPassing clouds.6 mph33%29.82 "Hg10 mi
8:51 AM96 °FScattered clouds.9 mph34%29.82 "Hg10 mi
7:51 AM96 °FScattered clouds.5 mph32%29.80 "Hg10 mi
6:51 AM93 °FPassing clouds.6 mph36%29.79 "Hg10 mi
5:51 AM91 °FPassing clouds.6 mph39%29.77 "Hg10 mi
4:51 AM92 °FPassing clouds.6 mph37%29.75 "Hg10 mi
3:51 AM92 °FPassing clouds.8 mph38%29.74 "Hg10 mi
2:51 AM92 °FPassing clouds.6 mph40%29.72 "Hg10 mi
1:51 AM93 °FPassing clouds.15 mph40%29.71 "Hg10 mi
12:51 AM94 °FPassing clouds.17 mph37%29.70 "Hg10 mi
11:51 PM
Tue, Jul 26
96 °FPassing clouds.13 mph35%29.70 "Hg10 mi
10:51 PM102 °FPassing clouds.9 mph23%29.68 "Hg10 mi
9:51 PM102 °FPassing clouds.7 mph24%29.68 "Hg10 mi
Weather by CustomWeather, © 2016

See weather overviewHow to use our weather pages